Weather History for KDYT - January, 2013

Change the Weather History Date:

Friday, January 18, 2013

  Actual Average Record
Temperature  
Mean Temperature 12 °F -  
Max Temperature 21 °F 21 °F 44 °F (1981)
Min Temperature 5 °F 3 °F -32 °F (1967)
Degree Days  
Heating Degree Days 53    
Moisture  
Dew Point 11 °F    
Average Humidity 82    
Maximum Humidity 86    
Minimum Humidity 67    
Precipitation  
Precipitation 0.00 in - - ()
Sea Level Pressure  
Sea Level Pressure 29.93 in    
Wind  
Wind Speed 4 mph (SSE)    
Max Wind Speed 10 mph    
Max Gust Speed 9 mph    
Visibility 7 miles    
Events Snow    
Averages and records for this station are not official NWS values.
T = Trace of Precipitation, MM = Missing Value Source: NWS Daily Summary

Daily Weather History Graph

Daily Weather History Graph

Search for Another Location

Airport or City:

Trip Planner

Search our weather history database for the weather conditions in past years. The results will help you decide how hot, cold, wet, or windy it might be!

Date:

Astronomy

Jan. 18, 2013 Rise Set
Actual Time 7:46 AM CST 4:51 PM CST
Civil Twilight 7:12 AM CST 5:25 PM CST
Nautical Twilight 6:35 AM CST 6:02 PM CST
Astronomical Twilight 5:59 AM CST 6:38 PM CST
Moon 10:54 AM CST (1/18) 12:11 AM CST (1/18)
Length of Visible Light 10h 12m
Length of Day
9h 05m
Waxing Crescent, 47% of the Moon is Illuminated
Jan 18
Waxing Crescent
Jan 18
First Quarter
Jan 26
Full
Feb 3
Last Quarter
Feb 10
New

Hourly Weather History & Observations

Time (CST) Temp. Windchill Dew Point Humidity Pressure Visibility Wind Dir Wind Speed Gust Speed Precip Events Conditions
12:13 AM 5.0 °F - -0.4 °F 78% 30.30 in 10.0 mi Calm Calm - N/A   Mostly Cloudy
12:33 AM 6.8 °F -0.1 °F -0.4 °F 72% 30.29 in 10.0 mi South 3.5 mph - N/A   Overcast
12:54 AM 6.8 °F - -0.4 °F 72% 30.28 in 10.0 mi Calm Calm - N/A   Overcast
1:13 AM 6.8 °F - -0.4 °F 72% 30.28 in 10.0 mi Calm Calm - N/A   Overcast
1:33 AM 6.8 °F -2.0 °F 1.4 °F 79% 30.27 in 10.0 mi South 4.6 mph - N/A   Overcast
1:54 AM 6.8 °F -3.5 °F -0.4 °F 72% 30.26 in 10.0 mi SSW 5.8 mph - N/A   Overcast
2:13 AM 8.6 °F 0.1 °F -0.4 °F 67% 30.25 in 10.0 mi SSW 4.6 mph - N/A   Overcast
2:33 AM 8.6 °F 2.0 °F 1.4 °F 73% 30.24 in 10.0 mi South 3.5 mph - N/A   Overcast
2:54 AM 8.6 °F - 1.4 °F 73% 30.23 in 10.0 mi Calm Calm - N/A   Overcast
3:13 AM 8.6 °F - 1.4 °F 73% 30.22 in 10.0 mi Calm Calm - N/A   Overcast
3:33 AM 8.6 °F - 1.4 °F 73% 30.20 in 10.0 mi Calm Calm - N/A   Overcast
3:54 AM 8.6 °F - 1.4 °F 73% 30.18 in 10.0 mi Calm Calm - N/A Snow Light Snow
4:13 AM 10.4 °F - 3.2 °F 73% 30.15 in 3.0 mi Calm Calm - N/A Snow Light Snow
4:33 AM 10.4 °F - 5.0 °F 79% 30.14 in 2.5 mi Calm Calm - N/A Snow Light Snow
4:54 AM 10.4 °F - 6.8 °F 85% 30.13 in 1.8 mi Calm Calm - N/A Snow Light Snow
5:13 AM 10.4 °F - 6.8 °F 85% 30.12 in 1.2 mi Calm Calm - N/A Snow Light Snow
5:33 AM 12.2 °F 6.1 °F 8.6 °F 85% 30.10 in 1.2 mi SE 3.5 mph - N/A Snow Light Snow
5:54 AM 12.2 °F 2.9 °F 8.6 °F 85% 30.08 in 1.2 mi East 5.8 mph - N/A Snow Light Snow
6:13 AM 12.2 °F 2.9 °F 8.6 °F 85% 30.06 in 1.8 mi SE 5.8 mph - N/A Snow Light Snow
6:33 AM 12.2 °F 2.9 °F 8.6 °F 85% 30.05 in 1.5 mi SE 5.8 mph - N/A Snow Light Snow
6:54 AM 12.2 °F 6.1 °F 8.6 °F 85% 30.02 in 1.2 mi SE 3.5 mph - N/A Snow Light Snow
7:13 AM 12.2 °F 2.9 °F 8.6 °F 85% 30.00 in 1.2 mi SE 5.8 mph - N/A Snow Light Snow
7:33 AM 14.0 °F 5.1 °F 10.4 °F 86% 29.98 in 1.2 mi SE 5.8 mph - N/A Snow Light Snow
7:54 AM 15.8 °F 5.1 °F 10.4 °F 79% 29.96 in 1.5 mi East 8.1 mph - N/A Snow Light Snow
8:13 AM 15.8 °F 7.2 °F 10.4 °F 79% 29.97 in 1.8 mi ESE 5.8 mph - N/A Snow Light Snow
8:33 AM 15.8 °F 4.2 °F 12.2 °F 86% 29.95 in 1.8 mi East 9.2 mph - N/A Snow Light Snow
8:54 AM 15.8 °F 8.6 °F 10.4 °F 79% 29.95 in 2.0 mi ESE 4.6 mph 9.2 mph N/A Snow Light Snow
9:13 AM 15.8 °F 4.2 °F 12.2 °F 86% 29.94 in 5.0 mi East 9.2 mph - N/A Snow Light Snow
9:33 AM 15.8 °F 5.1 °F 10.4 °F 79% 29.94 in 3.0 mi East 8.1 mph - N/A Snow Light Snow
9:54 AM 17.6 °F 6.4 °F 12.2 °F 79% 29.92 in 2.0 mi East 9.2 mph - N/A Snow Light Snow
10:13 AM 17.6 °F 6.4 °F 12.2 °F 79% 29.92 in 1.5 mi East 9.2 mph - N/A Snow Light Snow
10:33 AM 17.6 °F 6.4 °F 12.2 °F 79% 29.91 in 0.8 mi East 9.2 mph - N/A Snow Light Snow
10:54 AM 17.6 °F 7.3 °F 12.2 °F 79% 29.90 in 1.8 mi East 8.1 mph - N/A Snow Light Snow
11:13 AM 17.6 °F 7.3 °F 14.0 °F 86% 29.88 in 2.0 mi East 8.1 mph - N/A Snow Light Snow
11:33 AM 17.6 °F 8.2 °F 14.0 °F 86% 29.87 in 1.8 mi East 6.9 mph - N/A Snow Light Snow
11:54 AM 19.4 °F 8.6 °F 15.8 °F 86% 29.85 in 7.0 mi East 9.2 mph - N/A Snow Light Snow
12:13 PM 19.4 °F 9.5 °F 15.8 °F 86% 29.83 in 7.0 mi East 8.1 mph - N/A Snow Light Snow
12:33 PM 19.4 °F 9.5 °F 15.8 °F 86% 29.82 in 7.0 mi East 8.1 mph - N/A Snow Light Snow
12:54 PM 19.4 °F 9.5 °F 15.8 °F 86% 29.81 in 10.0 mi East 8.1 mph - N/A Snow Light Snow
1:13 PM 19.4 °F 8.6 °F 15.8 °F 86% 29.79 in 10.0 mi East 9.2 mph - N/A Snow Light Snow
1:33 PM 19.4 °F 7.9 °F 15.8 °F 86% 29.78 in 10.0 mi East 10.4 mph - N/A   Overcast
1:54 PM 19.4 °F 7.9 °F 15.8 °F 86% 29.78 in 10.0 mi East 10.4 mph - N/A Snow Light Snow
2:13 PM 19.4 °F 8.6 °F 15.8 °F 86% 29.78 in 10.0 mi East 9.2 mph - N/A Snow Light Snow
2:33 PM 19.4 °F 10.4 °F 15.8 °F 86% 29.79 in 10.0 mi ESE 6.9 mph - N/A   Overcast
2:54 PM 19.4 °F 12.8 °F 15.8 °F 86% 29.77 in 10.0 mi ESE 4.6 mph - N/A   Overcast
3:13 PM 17.6 °F 10.7 °F 14.0 °F 86% 29.80 in 10.0 mi SSW 4.6 mph - N/A   Overcast
3:34 PM 19.4 °F 11.5 °F 14.0 °F 80% 29.77 in 10.0 mi SE 5.8 mph - N/A   Overcast
3:54 PM 19.4 °F 11.5 °F 12.2 °F 74% 29.76 in 10.0 mi SE 5.8 mph - N/A   Overcast
4:13 PM 17.6 °F 10.7 °F 12.2 °F 79% 29.76 in 10.0 mi SSE 4.6 mph - N/A   Overcast
4:34 PM 17.6 °F 12.3 °F 14.0 °F 86% 29.76 in 10.0 mi SSE 3.5 mph - N/A   Overcast
4:54 PM 17.6 °F 12.3 °F 14.0 °F 86% 29.76 in 10.0 mi SSW 3.5 mph - N/A   Overcast
5:13 PM 19.4 °F 12.8 °F 14.0 °F 80% 29.78 in 10.0 mi WSW 4.6 mph - N/A   Overcast
5:34 PM 19.4 °F 14.3 °F 14.0 °F 80% 29.79 in 10.0 mi West 3.5 mph - N/A   Overcast
5:53 PM 19.4 °F 14.3 °F 14.0 °F 80% 29.79 in 10.0 mi WSW 3.5 mph - N/A   Overcast
6:13 PM 19.4 °F 14.3 °F 15.8 °F 86% 29.80 in 10.0 mi WSW 3.5 mph - N/A   Overcast
6:34 PM 19.4 °F 14.3 °F 15.8 °F 86% 29.80 in 10.0 mi SW 3.5 mph - N/A   Overcast
6:53 PM 19.4 °F - 15.8 °F 86% 29.80 in 10.0 mi Calm Calm - N/A   Overcast
7:13 PM 19.4 °F - 15.8 °F 86% 29.80 in 10.0 mi Calm Calm - N/A   Overcast
7:34 PM 19.4 °F - 15.8 °F 86% 29.79 in 10.0 mi Calm Calm - N/A   Overcast
7:53 PM 19.4 °F - 15.8 °F 86% 29.80 in 10.0 mi Calm Calm - N/A   Overcast
8:14 PM 19.4 °F 14.3 °F 15.8 °F 86% 29.80 in 10.0 mi SW 3.5 mph - N/A   Overcast
8:34 PM 19.4 °F 14.3 °F 15.8 °F 86% 29.79 in 10.0 mi SSW 3.5 mph - N/A   Overcast
8:53 PM 19.4 °F 14.3 °F 15.8 °F 86% 29.79 in 10.0 mi South 3.5 mph - N/A   Overcast
9:14 PM 19.4 °F 14.3 °F 15.8 °F 86% 29.79 in 10.0 mi SSW 3.5 mph - N/A   Overcast
9:34 PM 19.4 °F 11.5 °F 15.8 °F 86% 29.77 in 10.0 mi South 5.8 mph - N/A   Overcast
9:53 PM 19.4 °F 12.8 °F 15.8 °F 86% 29.78 in 10.0 mi SSW 4.6 mph - N/A   Overcast
10:14 PM 19.4 °F 10.4 °F 15.8 °F 86% 29.79 in 10.0 mi SW 6.9 mph - N/A   Overcast
10:34 PM 19.4 °F 11.5 °F 15.8 °F 86% 29.78 in 10.0 mi SW 5.8 mph - N/A   Overcast
10:53 PM 19.4 °F 14.3 °F 15.8 °F 86% 29.78 in 10.0 mi WSW 3.5 mph - N/A   Overcast
11:14 PM 19.4 °F - 15.8 °F 86% 29.78 in 10.0 mi Calm Calm - N/A   Overcast
11:34 PM 19.4 °F 14.3 °F 15.8 °F 86% 29.78 in 10.0 mi SW 3.5 mph - N/A   Overcast
11:53 PM 21.2 °F 14.9 °F 17.6 °F 86% 29.79 in 10.0 mi SW 4.6 mph - N/A   Overcast